Weather History for Valdosta Regional, GA

Change the Weather History Date:

Sunday, November 27, 2011

  Actual Average Record
Temperature  
Mean Temperature 72 °F 57 °F  
Max Temperature 82 °F 69 °F 82 °F (2011)
Min Temperature 63 °F 45 °F 34 °F (2008)
Degree Days  
Heating Degree Days 0 9  
Month to date heating degree days 160  
Since 1 July heating degree days 203  
Cooling Degree Days 8    
Growing Degree Days 22 (Base 50)    
Moisture  
Dew Point 56 °F    
Average Humidity 62    
Maximum Humidity 84    
Minimum Humidity 35    
Precipitation  
Precipitation 0.00 in 0.11 in 0.66 in (2004)
Month to date precipitation 2.25  
Year to date precipitation 47.12  
Sea Level Pressure  
Sea Level Pressure 30.06 in    
Wind  
Wind Speed 7 mph (SSE)    
Max Wind Speed 15 mph    
Max Gust Speed 24 mph    
Visibility 10 miles    
Events      
T = Trace of Precipitation, MM = Missing Value Source: NWS Daily Summary

Daily Weather History Graph

Daily Weather History Graph

Search for Another Location

Airport:

Trip Planner

Search our weather history database for the weather conditions in past years. The results will help you decide how hot, cold, wet, or windy it might be!

Date:

Astronomy

Nov. 27, 2011 Rise Set
Actual Time 7:09 AM EST 5:31 PM EST
Civil Twilight 6:43 AM EST 5:57 PM EST
Nautical Twilight 6:13 AM EST 6:27 PM EST
Astronomical Twilight 5:44 AM EST 6:56 PM EST
Moon 9:31 AM EST (11/27) 8:09 PM EST (11/27)
Length of Visible Light 11h 14m
Length of Day
10h 22m
Waxing Crescent, 8% of the Moon is Illuminated
Nov 27
Waxing Crescent
Dec 2
First Quarter
Dec 10
Full
Dec 17
Last Quarter
Dec 24
New

Hourly Weather History & Observations

Time (EST) Temp. Heat Index Dew Point Humidity Pressure Visibility Wind Dir Wind Speed Gust Speed Precip Events Conditions
12:53 AM 63.0 °F - 57.0 °F 81% 30.17 in 10.0 mi SE 5.8 mph - N/A   Clear
1:53 AM 63.0 °F - 57.0 °F 81% 30.16 in 10.0 mi Calm Calm - N/A   Mostly Cloudy
2:53 AM 63.0 °F - 57.9 °F 84% 30.15 in 10.0 mi SE 4.6 mph - 0.00 in   Mostly Cloudy
3:53 AM 64.9 °F - 57.9 °F 78% 30.13 in 10.0 mi SE 6.9 mph - N/A   Overcast
4:53 AM 66.9 °F - 59.0 °F 76% 30.13 in 10.0 mi SSE 6.9 mph - N/A   Overcast
5:53 AM 64.9 °F - 59.0 °F 81% 30.13 in 10.0 mi SSE 5.8 mph - N/A   Overcast
6:53 AM 66.2 °F - 59.0 °F 78% 30.12 in 10.0 mi SSE 5.8 mph - N/A   Overcast
7:53 AM 66.0 °F - 59.0 °F 78% 30.15 in 10.0 mi SE 5.8 mph - N/A   Overcast
8:53 AM 68.0 °F - 59.0 °F 73% 30.14 in 10.0 mi SE 8.1 mph - N/A   Overcast
9:53 AM 75.2 °F - 57.2 °F 53% 30.12 in 10.0 mi SSE 10.4 mph - N/A   Mostly Cloudy
10:53 AM 79.0 °F - 54.0 °F 42% 30.12 in 10.0 mi SSE 15.0 mph 24.2 mph N/A   Clear
11:53 AM 81.0 °F 80.4 °F 53.1 °F 38% 30.09 in 10.0 mi South 13.8 mph - N/A   Scattered Clouds
12:53 PM 78.8 °F - 53.6 °F 42% 30.05 in 10.0 mi South 12.7 mph 23.0 mph N/A   Mostly Cloudy
1:53 PM 80.1 °F 79.9 °F 53.1 °F 39% 30.04 in 10.0 mi South 12.7 mph - N/A   Mostly Cloudy
2:53 PM 82.0 °F - 52.0 °F 35% 30.01 in 10.0 mi SSE 12.7 mph - N/A   Overcast
3:53 PM 79.0 °F - 52.0 °F 39% 30.00 in 10.0 mi SSE 12.7 mph - N/A   Mostly Cloudy
4:53 PM 78.1 °F - 53.1 °F 42% 29.99 in 10.0 mi SSE 8.1 mph - N/A   Mostly Cloudy
5:53 PM 75.0 °F - 53.1 °F 46% 29.98 in 10.0 mi SSE 4.6 mph - N/A   Mostly Cloudy
6:53 PM 72.0 °F - 54.0 °F 53% 29.98 in 10.0 mi SE 4.6 mph - N/A   Mostly Cloudy
7:53 PM 68.0 °F - 55.0 °F 63% 29.99 in 10.0 mi South 3.5 mph - N/A   Mostly Cloudy
8:53 PM 64.9 °F - 55.0 °F 70% 29.99 in 10.0 mi Calm Calm - N/A   Mostly Cloudy
9:53 PM 68.0 °F - 57.9 °F 70% 29.98 in 10.0 mi SSE 6.9 mph - N/A   Clear
10:53 PM 69.1 °F - 60.1 °F 73% 29.96 in 10.0 mi SSE 6.9 mph - N/A   Clear
11:53 PM 69.1 °F - 60.1 °F 73% 29.94 in 10.0 mi SSE 11.5 mph - N/A   Mostly Cloudy